Kenner, LA

11:49 PM CDT on August 30, 2016 (GMT -0500)
New Orleans International

Weather History for KMSY - September, 2013

Change the Weather History Date:

Monday, September 30, 2013

  Actual Average Record
Temperature  
Mean Temperature 78 °F -  
Max Temperature 84 °F 83 °F 92 °F (1981)
Min Temperature 73 °F 64 °F 42 °F (1967)
Cooling Degree Days 14    
Growing Degree Days 28 (Base 50)    
Moisture  
Dew Point 73 °F    
Average Humidity 86    
Maximum Humidity 100    
Minimum Humidity 68    
Precipitation  
Precipitation 1.22 in - - ()
Sea Level Pressure  
Sea Level Pressure 29.94 in    
Wind  
Wind Speed 5 mph (ESE)    
Max Wind Speed 10 mph    
Max Gust Speed -    
Visibility 9 miles    
Events Rain , Thunderstorm    
Averages and records for this station are not official NWS values.
T = Trace of Precipitation, MM = Missing Value Source: NWS Daily Summary

Daily Weather History Graph

Daily Weather History Graph

Search for Another Location

Airport or City:

Trip Planner

Search our weather history database for the weather conditions in past years. The results will help you decide how hot, cold, wet, or windy it might be!

Date:

Astronomy

Sep. 30, 2013 Rise Set
Actual Time 6:53 AM CDT 6:47 PM CDT
Civil Twilight 6:30 AM CDT 7:11 PM CDT
Nautical Twilight 6:02 AM CDT 7:38 PM CDT
Astronomical Twilight 5:34 AM CDT 8:06 PM CDT
Moon 2:47 AM CDT (9/30) 4:03 PM CDT (9/30)
Length of Visible Light 12h 41m
Length of Day
11h 53m
Waning Crescent, 19% of the Moon is Illuminated
Sep 30
Waning Crescent
Oct 4
New
Oct 11
First Quarter
Oct 18
Full
Oct 26
Last Quarter

Hourly Weather History & Observations

Time (CDT) Temp. Heat Index Dew Point Humidity Pressure Visibility Wind Dir Wind Speed Gust Speed Precip Events Conditions
12:53 AM 77.0 °F - 71.1 °F 82% 29.95 in 10.0 mi SE 4.6 mph - N/A   Mostly Cloudy
1:53 AM 77.0 °F - 71.1 °F 82% 29.95 in 10.0 mi SE 4.6 mph - N/A   Overcast
2:53 AM 77.0 °F - 71.1 °F 82% 29.93 in 10.0 mi SE 4.6 mph - N/A   Mostly Cloudy
3:53 AM 75.9 °F - 71.1 °F 85% 29.93 in 10.0 mi SE 3.5 mph - N/A   Overcast
4:53 AM 77.0 °F - 71.1 °F 82% 29.93 in 10.0 mi ESE 4.6 mph - N/A   Mostly Cloudy
5:53 AM 78.1 °F - 71.1 °F 79% 29.94 in 10.0 mi ESE 4.6 mph - N/A   Overcast
6:53 AM 78.1 °F - 72.0 °F 81% 29.95 in 10.0 mi SE 4.6 mph - N/A   Mostly Cloudy
7:53 AM 77.0 °F - 73.0 °F 88% 29.95 in 9.0 mi SSE 3.5 mph - 0.01 in Rain Light Rain
8:53 AM 78.1 °F - 73.9 °F 87% 29.96 in 10.0 mi SE 4.6 mph - 0.00 in   Mostly Cloudy
9:53 AM 78.1 °F - 72.0 °F 81% 29.97 in 10.0 mi SE 6.9 mph - N/A   Mostly Cloudy
10:53 AM 80.1 °F 84.2 °F 73.0 °F 79% 29.97 in 10.0 mi SE 9.2 mph - N/A   Overcast
11:53 AM 81.0 °F 85.8 °F 73.0 °F 77% 29.97 in 10.0 mi SSE 9.2 mph - N/A   Overcast
12:53 PM 82.0 °F 87.4 °F 73.0 °F 74% 29.95 in 10.0 mi SE 5.8 mph - N/A   Overcast
1:53 PM 84.0 °F 90.2 °F 73.0 °F 69% 29.93 in 10.0 mi SE 9.2 mph - N/A   Overcast
2:53 PM 80.1 °F 83.8 °F 72.0 °F 76% 29.93 in 10.0 mi SE 10.4 mph - 0.00 in Rain Light Rain
3:46 PM 78.8 °F - 73.4 °F 83% 29.91 in 5.0 mi Calm Calm - 0.17 in Rain , Thunderstorm Light Thunderstorms and Rain
3:53 PM 79.0 °F - 73.9 °F 84% 29.93 in 7.0 mi East 8.1 mph - 0.17 in Rain , Thunderstorm Light Thunderstorms and Rain
4:17 PM 75.2 °F - 73.4 °F 94% 29.92 in 10.0 mi NW 6.9 mph - 0.00 in   Overcast
4:53 PM 75.0 °F - 73.0 °F 94% 29.94 in 9.0 mi NW 5.8 mph - 0.01 in Rain Light Rain
5:05 PM 75.2 °F - 73.4 °F 94% 29.94 in 1.8 mi WSW 3.5 mph - 0.00 in Rain Light Rain
5:07 PM 75.2 °F - 73.4 °F 94% 29.94 in 4.0 mi Variable 3.5 mph - 0.02 in Rain Light Rain
5:16 PM 73.4 °F - 71.6 °F 94% 29.94 in 2.5 mi Variable 4.6 mph - 0.53 in Rain , Thunderstorm Heavy Thunderstorms and Rain
5:26 PM 73.4 °F - 71.6 °F 94% 29.94 in 4.0 mi ENE 6.9 mph - 1.00 in Rain , Thunderstorm Light Thunderstorms and Rain
5:35 PM 73.4 °F - 73.4 °F 100% 29.93 in 7.0 mi East 3.5 mph - 1.04 in Rain Light Rain
5:53 PM 75.0 °F - 73.0 °F 94% 29.94 in 10.0 mi East 3.5 mph - 1.04 in Rain Light Rain
6:53 PM 75.9 °F - 73.0 °F 91% 29.94 in 10.0 mi ESE 4.6 mph - 0.00 in   Mostly Cloudy
7:53 PM 75.9 °F - 73.9 °F 94% 29.94 in 10.0 mi ENE 3.5 mph - N/A   Mostly Cloudy
8:28 PM 75.2 °F - 73.4 °F 94% 29.94 in 10.0 mi East 5.8 mph - N/A   Overcast
8:39 PM 75.2 °F - 73.4 °F 94% 29.94 in 10.0 mi East 3.5 mph - N/A   Overcast
8:53 PM 75.9 °F - 73.0 °F 91% 29.96 in 10.0 mi East 4.6 mph - N/A   Overcast
9:53 PM 75.9 °F - 72.0 °F 87% 29.97 in 10.0 mi SE 6.9 mph - N/A   Mostly Cloudy
10:53 PM 75.9 °F - 72.0 °F 87% 29.96 in 10.0 mi ESE 6.9 mph - N/A   Scattered Clouds
11:53 PM 75.9 °F - 72.0 °F 87% 29.97 in 10.0 mi SSE 3.5 mph - N/A   Scattered Clouds